GFSFLT2_sfc_rhum_042.txt.gz
RH
98 98 99 98 98 97 94 96 95 87 84 85 88 87 83 68 62 61 61 60 59 59 60 60 59 58 56
100 100 100 98 97 97 93 88 92 88 94 90 84 70 62 63 59 57 58 59 59 60 60 59 58 58 60
99 99 100 99 99 99 99 97 90 91 83 67 65 63 55 55 57 57 58 57 58 59 60 60 59 58 59
99 99 99 99 99 99 98 95 84 62 62 58 56 58 58 58 56 58 60 60 59 59 60 59 59 59 60
98 98 98 97 98 91 88 85 80 80 75 72 72 74 72 66 64 60 60 60 61 62 61 60 60 58 59
98 98 91 88 83 85 92 95 90 80 82 83 80 79 79 79 68 64 63 62 61 61 62 61 61 60 61
90 93 86 85 91 97 93 95 92 85 91 92 85 82 78 64 64 62 62 62 62 62 64 63 62 64 66
87 88 84 84 85 86 89 92 90 89 90 97 89 83 80 81 68 66 64 63 61 61 65 66 67 67 66
63 60 58 56 68 91 97 98 91 84 83 89 90 91 88 90 83 62 60 64 64 65 67 67 68 70 73
76 72 67 64 56 72 95 96 97 96 83 97 95 96 96 80 86 79 81 72 69 68 68 68 69 78 91
77 68 61 66 77 85 79 93 97 96 78 90 99 96 95 97 87 85 83 78 82 77 73 73 71 74 86
64 68 84 94 94 96 89 97 95 92 89 96 98 96 95 92 88 77 81 86 90 87 88 82 78 74 71
76 95 97 96 97 96 95 93 94 94 91 95 95 94 97 94 91 85 81 92 85 89 92 96 93 90 95
94 86 88 98 97 90 94 98 99 95 92 92 94 96 96 94 94 91 87 95 91 86 91 91 90 91 92
93 78 72 76 90 95 94 99 98 96 93 94 92 92 91 96 96 88 85 84 86 87 90 93 88 86 84
79 82 84 89 96 94 97 97 96 93 94 92 97 95 93 88 83 90 86 88 89 90 92 96 89 83 79
98 98 97 98 91 95 94 95 93 94 93 94 98 100 96 95 82 62 92 89 90 90 86 89 92 86 82

GFSFLT2_sfc_rhum_045.txt.gz
RH
98 98 98 98 98 97 95 97 95 86 85 84 83 83 81 82 82 80 76 69 64 62 60 59 59 59 58
100 100 100 99 99 98 95 91 94 90 86 84 85 85 82 78 71 66 63 60 59 59 59 60 60 59 59
99 99 99 99 100 99 98 98 94 92 89 87 85 75 66 63 59 57 58 59 59 59 60 60 60 60 59
99 99 100 99 99 99 99 99 99 76 67 64 62 60 60 60 60 60 59 60 62 62 61 60 61 61 60
97 98 98 98 98 98 97 88 82 83 78 74 72 72 73 67 62 60 60 60 60 61 62 62 61 59 59
97 95 94 93 87 85 92 97 92 82 86 82 79 78 80 80 69 63 62 63 64 64 63 63 61 60 60
92 93 89 88 91 97 93 95 90 85 91 96 87 83 79 67 64 64 63 64 64 64 64 64 63 61 61
88 88 87 86 85 87 90 93 90 88 92 99 90 84 80 80 70 69 67 65 64 65 62 65 66 68 68
66 63 62 63 71 91 84 98 94 81 84 90 90 92 88 91 84 69 66 67 64 64 66 67 67 69 74
76 71 64 60 54 81 96 96 98 95 80 98 94 93 94 77 83 81 82 69 68 69 69 68 69 74 92
73 67 63 74 85 89 81 94 97 96 76 94 100 99 95 97 86 85 83 77 80 76 74 74 74 74 94
66 73 87 94 94 95 88 97 94 92 89 96 99 99 98 94 90 78 81 85 93 86 90 84 79 77 75
78 95 97 97 96 96 95 93 94 94 90 97 98 98 97 94 91 85 82 90 88 88 90 95 96 96 95
96 88 91 97 96 98 97 88 100 95 92 94 97 99 96 95 94 91 85 94 94 95 94 89 90 92 93
97 78 71 75 79 97 97 99 99 97 94 95 92 93 94 94 96 89 88 88 87 89 91 93 89 89 90
86 85 84 84 95 96 99 99 96 94 95 93 98 98 95 91 86 91 88 89 86 91 94 97 91 84 80
99 98 98 99 96 97 96 98 95 92 93 94 100 99 96 95 87 61 92 90 92 94 91 94 93 85 81

GFSFLT2_sfc_rhum_048.txt.gz
RH
98 97 97 98 96 96 96 97 97 93 90 88 87 86 86 83 80 80 79 76 76 75 77 74 69 64 58
100 100 100 98 98 98 95 92 95 90 87 85 83 84 84 83 82 82 78 73 69 65 60 58 58 59 58
99 98 99 99 100 99 98 97 90 88 86 87 87 87 83 80 77 75 66 62 59 60 59 60 60 60 59
99 99 99 100 100 100 99 99 99 86 79 72 66 64 64 63 62 62 62 61 60 60 61 60 60 60 60
96 96 96 94 96 97 98 94 87 86 80 76 74 74 72 68 65 59 56 56 58 60 60 61 62 61 60
100 94 92 93 92 93 95 97 93 86 86 81 80 80 79 80 69 64 63 62 62 62 64 64 61 59 59
92 94 90 88 92 97 94 95 92 87 92 96 88 82 76 67 64 63 64 64 64 65 64 63 60 61 60
89 88 88 87 87 88 90 94 92 89 93 100 90 83 80 80 72 69 69 67 64 64 65 63 62 65 66
68 65 64 64 71 95 98 98 95 82 87 93 90 91 88 88 81 71 70 70 66 64 65 66 67 67 75
73 66 60 61 60 88 97 97 98 95 80 98 94 92 94 76 79 78 78 69 64 68 67 68 69 82 89
70 67 72 83 89 92 83 94 97 96 74 94 100 99 98 96 87 82 82 80 80 77 70 70 72 76 96
68 76 88 94 95 96 88 97 93 91 89 96 99 99 100 96 95 81 82 80 90 83 91 82 80 76 76
80 96 97 97 97 97 96 93 94 93 90 97 98 100 100 97 93 90 88 93 83 90 90 96 96 97 93
97 90 92 97 88 91 98 98 100 97 92 96 97 100 96 95 96 92 89 96 97 96 98 96 89 91 92
98 92 72 74 78 96 98 99 96 92 95 95 92 95 96 96 97 90 89 89 88 90 93 92 87 89 88
98 98 96 96 96 97 99 100 98 94 95 94 98 97 95 90 88 93 91 92 88 90 94 97 90 85 82
99 99 98 99 95 98 96 98 96 95 92 96 100 98 97 96 88 65 96 92 93 94 92 94 92 85 80

GFSFLT2_sfc_rhum_051.txt.gz
RH
92 89 88 92 88 87 90 93 92 89 87 85 85 84 84 84 82 78 76 80 79 80 77 77 77 73 69
96 96 97 92 92 92 89 85 88 87 84 82 81 79 77 77 77 81 78 79 79 80 80 74 68 62 60
95 93 92 96 98 99 96 94 89 90 86 84 83 82 83 80 79 80 80 82 77 75 69 64 60 60 60
93 92 92 95 97 96 86 90 87 64 66 69 69 68 66 66 65 63 63 64 64 63 61 61 60 60 59
87 81 78 74 80 74 72 62 59 62 55 51 51 50 49 54 58 60 58 56 55 56 57 58 60 60 61
81 69 67 63 60 63 65 65 63 58 57 50 52 48 46 45 56 60 59 59 58 59 61 63 63 62 62
66 66 63 63 74 80 75 70 63 57 63 55 52 48 45 45 62 64 63 64 64 64 65 65 62 60 60
65 66 66 65 68 73 71 72 60 58 62 68 53 50 49 50 68 69 67 68 67 65 66 65 64 62 62
64 61 62 63 60 70 78 78 62 50 54 62 55 60 54 52 50 68 66 69 69 66 66 66 64 65 65
49 45 49 52 66 63 74 81 73 70 55 74 64 65 72 49 50 51 50 58 63 66 70 67 67 63 63
45 47 55 60 61 65 66 82 86 82 56 76 91 75 78 76 57 53 54 55 53 55 62 66 67 67 70
52 55 64 72 73 76 74 79 75 86 75 88 92 89 88 84 76 56 56 59 64 67 70 71 72 73 72
64 73 76 76 88 85 85 80 81 83 81 90 91 90 92 89 84 78 79 64 70 78 78 79 75 71 80
70 68 68 81 76 72 82 76 83 76 81 86 92 95 93 86 88 88 78 89 72 72 77 78 73 70 75
73 70 65 68 70 71 81 83 86 80 75 70 77 82 86 94 92 81 77 74 77 83 84 84 78 76 72
77 80 82 84 84 81 83 86 85 76 76 72 77 82 80 74 85 84 75 80 79 82 84 90 87 76 64
84 86 88 88 83 82 83 83 82 77 77 79 88 93 93 91 65 73 89 83 81 80 78 84 90 84 68

GFSFLT2_sfc_rhum_054.txt.gz
RH
87 82 80 80 78 77 76 80 85 86 85 83 82 81 82 83 84 82 78 75 79 78 73 76 74 77 73
91 91 93 79 81 82 79 70 71 81 84 83 81 79 77 75 74 74 76 76 75 75 79 77 74 72 69
89 84 85 88 92 88 85 84 73 74 72 74 74 74 77 78 78 78 79 79 80 76 74 71 68 66 63
86 84 84 83 88 78 66 64 59 48 50 54 60 68 67 67 66 65 64 65 65 65 65 64 64 62 60
82 76 71 64 66 60 57 50 46 50 46 41 42 42 43 50 55 60 61 60 60 60 60 58 57 59 60
78 62 57 52 47 52 55 56 57 50 48 40 37 39 35 35 41 55 58 58 56 55 54 56 60 61 61
51 47 48 50 66 74 66 61 52 45 51 45 37 38 37 34 51 63 64 64 64 63 63 64 64 64 60
54 55 56 57 60 63 62 60 48 42 49 61 40 43 40 42 55 68 67 67 68 68 66 66 66 64 61
62 60 59 61 59 56 70 67 55 38 42 54 47 50 44 44 43 64 65 64 67 70 68 66 63 65 66
41 38 42 45 61 48 58 81 68 72 49 68 59 60 74 44 44 45 47 51 59 62 66 68 71 71 66
34 36 42 48 48 53 58 83 86 81 57 69 84 75 76 76 55 48 48 50 51 52 56 64 67 69 70
39 41 50 61 65 68 68 73 68 85 74 85 89 86 85 85 74 53 52 55 60 65 67 66 68 70 71
49 63 68 70 85 82 84 80 82 78 80 88 89 86 86 88 82 75 74 64 69 79 76 76 74 69 79
55 54 55 74 73 68 77 71 75 70 80 87 89 89 88 79 81 84 79 88 70 73 78 76 69 66 72
57 56 53 58 65 65 71 75 78 72 68 65 75 79 81 90 90 77 73 73 78 85 80 82 77 74 68
64 68 67 70 70 69 72 75 76 69 67 65 69 76 77 76 79 86 76 77 77 82 81 89 85 78 64
72 76 78 77 75 71 70 71 74 69 69 72 83 89 92 91 65 71 88 82 80 79 79 83 88 84 68